Weather History for KHYX - May, 2013

Change the Weather History Date:

Saturday, May 11, 2013

  Actual Average (KMBS) Record (KMBS)
Temperature  
Mean Temperature 48 °F 56 °F  
Max Temperature 60 °F 66 °F 80 °F (2014)
Min Temperature 37 °F 45 °F 36 °F (1997)
Degree Days  
Heating Degree Days 16    
Month to date heating degree days  
Since 1 July heating degree days  
Cooling Degree Days 0    
Month to date cooling degree days  
Year to date cooling degree days  
Moisture  
Dew Point 42 °F    
Average Humidity 86    
Maximum Humidity 100    
Minimum Humidity 59    
Precipitation  
Precipitation 0.00 in 0.11 in 1.41 in (2006)
Month to date precipitation 1.19  
Year to date precipitation 9.46  
Snow  
Snow 0.00 in - - ()
Month to date snowfall  
Since 1 July snowfall  
Snow Depth -    
Sea Level Pressure  
Sea Level Pressure 29.82 in    
Wind  
Wind Speed 10 mph (West)    
Max Wind Speed 29 mph    
Max Gust Speed 38 mph    
Visibility 10 miles    
Events Rain    
T = Trace of Precipitation, MM = Missing Value Source: NWS Daily Summary

Daily Weather History Graph

Daily Weather History Graph

Search for Another Location

Airport or City:

Trip Planner

Search our weather history database for the weather conditions in past years. The results will help you decide how hot, cold, wet, or windy it might be!

Date:

Astronomy

May. 11, 2013 Rise Set
Actual Time 6:15 AM EDT 8:49 PM EDT
Civil Twilight 5:42 AM EDT 9:21 PM EDT
Nautical Twilight 5:02 AM EDT 10:02 PM EDT
Astronomical Twilight 4:16 AM EDT 10:49 PM EDT
Moon 7:21 AM EDT (5/11) 10:29 PM EDT (5/11)
Length of Visible Light 15h 39m
Length of Day
14h 33m
Waxing Crescent, 3% of the Moon is Illuminated
May 11
Waxing Crescent
May 18
First Quarter
May 25
Full
May 31
Last Quarter
Jun 8
New

Hourly Weather History & Observations

Time (EDT) Temp. Windchill Dew Point Humidity Pressure Visibility Wind Dir Wind Speed Gust Speed Precip Events Conditions
12:13 AM 42.8 °F 37.0 °F 42.8 °F 100% 29.88 in 10.0 mi NNW 10.4 mph - N/A   Overcast
12:34 AM 42.8 °F 36.6 °F 42.8 °F 100% 29.88 in 10.0 mi NNW 11.5 mph - N/A   Overcast
12:54 AM 42.8 °F 36.6 °F 41.0 °F 93% 29.88 in 10.0 mi NNW 11.5 mph - N/A   Overcast
1:14 AM 41.0 °F 34.7 °F 41.0 °F 100% 29.88 in 10.0 mi NNW 10.4 mph - N/A   Overcast
1:34 AM 41.0 °F 35.8 °F 41.0 °F 100% 29.88 in 10.0 mi NW 8.1 mph - N/A   Overcast
1:54 AM 41.0 °F 34.7 °F 41.0 °F 100% 29.88 in 10.0 mi NW 10.4 mph - N/A   Overcast
2:14 AM 41.0 °F 36.4 °F 41.0 °F 100% 29.89 in 10.0 mi NW 6.9 mph - N/A   Overcast
2:34 AM 41.0 °F 37.1 °F 41.0 °F 100% 29.88 in 10.0 mi NNW 5.8 mph - N/A   Overcast
2:54 AM 41.0 °F 39.0 °F 41.0 °F 100% 29.87 in 10.0 mi NW 3.5 mph - N/A   Overcast
3:14 AM 41.0 °F 37.1 °F 41.0 °F 100% 29.88 in 10.0 mi NW 5.8 mph - N/A   Overcast
3:35 AM 41.0 °F 36.4 °F 41.0 °F 100% 29.88 in 10.0 mi NW 6.9 mph - N/A   Overcast
3:55 AM 41.0 °F 36.4 °F 41.0 °F 100% 29.88 in 10.0 mi WNW 6.9 mph - N/A   Overcast
4:15 AM 41.0 °F 38.0 °F 41.0 °F 100% 29.87 in 10.0 mi WNW 4.6 mph - N/A   Overcast
4:35 AM 42.8 °F 39.3 °F 41.0 °F 93% 29.87 in 10.0 mi WNW 5.8 mph - N/A   Overcast
4:55 AM 41.0 °F 35.8 °F 41.0 °F 100% 29.87 in 10.0 mi NW 8.1 mph - N/A   Overcast
5:15 AM 41.0 °F 38.0 °F 41.0 °F 100% 29.87 in 10.0 mi NW 4.6 mph - N/A   Overcast
5:35 AM 41.0 °F 37.1 °F 41.0 °F 100% 29.87 in 10.0 mi NW 5.8 mph - N/A   Overcast
5:55 AM 42.8 °F 41.1 °F 41.0 °F 93% 29.87 in 10.0 mi West 3.5 mph - N/A   Overcast
6:15 AM 42.8 °F - 41.0 °F 93% 29.86 in 10.0 mi Calm Calm - N/A   Overcast
6:35 AM 42.8 °F - 41.0 °F 93% 29.86 in 10.0 mi Calm Calm - N/A   Overcast
6:55 AM 42.8 °F 41.1 °F 41.0 °F 93% 29.87 in 10.0 mi West 3.5 mph - N/A   Overcast
7:10 AM 42.8 °F 38.0 °F 41.0 °F 93% 29.87 in 10.0 mi West 8.1 mph - N/A   Overcast
7:31 AM 42.8 °F 38.6 °F 41.0 °F 93% 29.87 in 10.0 mi WSW 6.9 mph - N/A   Overcast
7:51 AM 42.8 °F 38.6 °F 42.8 °F 100% 29.86 in 10.0 mi West 6.9 mph - N/A   Overcast
8:11 AM 42.8 °F 40.1 °F 42.8 °F 100% 29.86 in 10.0 mi West 4.6 mph - N/A   Overcast
8:31 AM 42.8 °F 38.6 °F 42.8 °F 100% 29.86 in 7.0 mi West 6.9 mph - N/A   Overcast
8:51 AM 44.6 °F 40.2 °F 42.8 °F 93% 29.85 in 10.0 mi West 8.1 mph - N/A   Overcast
9:11 AM 44.6 °F 40.7 °F 44.6 °F 100% 29.85 in 10.0 mi West 6.9 mph - N/A   Overcast
9:31 AM 46.4 °F 42.9 °F 44.6 °F 93% 29.84 in 10.0 mi West 6.9 mph - N/A   Overcast
9:51 AM 46.4 °F 41.9 °F 44.6 °F 93% 29.84 in 10.0 mi West 9.2 mph - N/A   Overcast
10:12 AM 46.4 °F 42.4 °F 44.6 °F 93% 29.83 in 10.0 mi West 8.1 mph - N/A   Overcast
10:32 AM 48.2 °F - 44.6 °F 87% 29.83 in 10.0 mi West 5.8 mph - N/A   Overcast
10:52 AM 50.0 °F - 44.6 °F 82% 29.82 in 10.0 mi SW 5.8 mph - N/A   Overcast
11:12 AM 50.0 °F - 46.4 °F 87% 29.81 in 10.0 mi SW 8.1 mph - N/A   Overcast
11:32 AM 51.8 °F - 44.6 °F 76% 29.81 in 10.0 mi WSW 6.9 mph - N/A   Overcast
11:52 AM 51.8 °F - 46.4 °F 82% 29.79 in 10.0 mi SW 5.8 mph - N/A   Mostly Cloudy
12:12 PM 53.6 °F - 46.4 °F 77% 29.78 in 10.0 mi South 3.5 mph - N/A   Mostly Cloudy
12:33 PM 53.6 °F - 46.4 °F 77% 29.77 in 10.0 mi SSW 8.1 mph - N/A   Scattered Clouds
12:53 PM 55.4 °F - 46.4 °F 72% 29.76 in 10.0 mi SW 9.2 mph - N/A   Clear
1:13 PM 57.2 °F - 46.4 °F 67% 29.75 in 10.0 mi SSW 13.8 mph 17.3 mph N/A   Clear
1:33 PM 59.0 °F - 46.4 °F 63% 29.74 in 10.0 mi SSW 12.7 mph 18.4 mph N/A   Scattered Clouds
1:53 PM 59.0 °F - 46.4 °F 63% 29.74 in 10.0 mi SSW 11.5 mph 17.3 mph N/A   Scattered Clouds
2:13 PM 59.0 °F - 48.2 °F 67% 29.73 in 10.0 mi SW 17.3 mph 21.9 mph N/A   Mostly Cloudy
2:33 PM 59.0 °F - 46.4 °F 63% 29.72 in 10.0 mi SSW 15.0 mph 21.9 mph N/A   Mostly Cloudy
2:53 PM 60.8 °F - 46.4 °F 59% 29.71 in 10.0 mi SSW 16.1 mph - N/A   Mostly Cloudy
3:13 PM 60.8 °F - 46.4 °F 59% 29.71 in 10.0 mi SSW 15.0 mph 21.9 mph N/A   Mostly Cloudy
3:33 PM 60.8 °F - 46.4 °F 59% 29.69 in 10.0 mi SW 16.1 mph 24.2 mph N/A   Overcast
3:53 PM 60.8 °F - 46.4 °F 59% 29.69 in 10.0 mi SW 15.0 mph 25.3 mph N/A   Overcast
4:13 PM 60.8 °F - 46.4 °F 59% 29.68 in 10.0 mi SW 12.7 mph - N/A   Overcast
4:33 PM 59.0 °F - 44.6 °F 59% 29.68 in 10.0 mi WSW 21.9 mph 26.5 mph N/A   Overcast
4:53 PM 53.6 °F - 50.0 °F 88% 29.70 in 4.0 mi WSW 18.4 mph 28.8 mph N/A Rain Rain
5:14 PM 53.6 °F - 51.8 °F 94% 29.70 in 5.0 mi SW 12.7 mph 23.0 mph N/A Rain Light Rain
5:34 PM 53.6 °F - 51.8 °F 94% 29.70 in 10.0 mi SW 15.0 mph 20.7 mph N/A   Overcast
5:54 PM 46.4 °F 38.7 °F 42.8 °F 87% 29.74 in 10.0 mi WNW 20.7 mph 38.0 mph N/A Rain Light Rain
6:14 PM 44.6 °F 36.1 °F 42.8 °F 93% 29.76 in 10.0 mi NW 21.9 mph 29.9 mph N/A   Overcast
6:34 PM 44.6 °F 36.1 °F 41.0 °F 87% 29.79 in 10.0 mi WNW 21.9 mph 27.6 mph N/A   Overcast
6:54 PM 41.0 °F 30.0 °F 37.4 °F 87% 29.81 in 10.0 mi WNW 28.8 mph 33.4 mph N/A   Overcast
7:14 PM 42.8 °F 34.8 °F 37.4 °F 81% 29.83 in 10.0 mi NW 17.3 mph 33.4 mph N/A   Mostly Cloudy
7:34 PM 41.0 °F 32.2 °F 35.6 °F 81% 29.84 in 10.0 mi WNW 18.4 mph 31.1 mph N/A   Scattered Clouds
7:54 PM 42.8 °F 34.5 °F 35.6 °F 76% 29.85 in 10.0 mi WNW 18.4 mph 26.5 mph N/A   Scattered Clouds
8:15 PM 41.0 °F 31.6 °F 33.8 °F 76% 29.85 in 10.0 mi WNW 20.7 mph 26.5 mph N/A   Scattered Clouds
8:35 PM 41.0 °F 33.5 °F 33.8 °F 76% 29.86 in 10.0 mi WNW 13.8 mph 24.2 mph N/A   Clear
8:55 PM 41.0 °F 35.8 °F 33.8 °F 76% 29.85 in 10.0 mi WNW 8.1 mph - N/A   Clear
9:15 PM 39.2 °F 33.0 °F 33.8 °F 81% 29.86 in 10.0 mi West 9.2 mph - N/A   Clear
9:35 PM 39.2 °F 33.6 °F 33.8 °F 81% 29.86 in 10.0 mi West 8.1 mph - N/A   Clear
10:15 PM 39.2 °F 35.0 °F 33.8 °F 81% 29.86 in 10.0 mi WSW 5.8 mph - N/A   Clear
10:35 PM 39.2 °F 34.2 °F 35.6 °F 87% 29.86 in 10.0 mi WSW 6.9 mph - N/A   Clear
10:50 PM 39.2 °F 33.6 °F 35.6 °F 87% 29.86 in 10.0 mi WSW 8.1 mph - N/A   Clear
11:11 PM 39.2 °F 33.0 °F 35.6 °F 87% 29.85 in 10.0 mi WSW 9.2 mph - N/A   Clear
11:31 PM 37.4 °F 31.4 °F 35.6 °F 93% 29.85 in 10.0 mi WSW 8.1 mph - N/A   Clear
11:51 PM 39.2 °F 32.5 °F 35.6 °F 87% 29.84 in 10.0 mi WSW 10.4 mph - N/A   Clear